This is the latest recevied weather packets stored in our database for station/object S53BL-10. If no packets are shown the sender has not sent any weather packets the latest 10 day(s).
| Time | Temp. | Humidity | Pressure | Rain* | Wind** | Luminosity | Snow |
|---|---|---|---|---|---|---|---|
| 1777315104 | 17.78° C | 37% | 1014.7 hPa | - | - | - | - |
| 1777314203 | 17.78° C | 37% | 1014.5 hPa | - | - | - | - |
| 1777313302 | 18.33° C | 36% | 1014.3 hPa | - | - | - | - |
| 1777312401 | 18.89° C | 34% | 1014 hPa | - | - | - | - |
| 1777311500 | 19.44° C | 34% | 1013.9 hPa | - | - | - | - |
| 1777310600 | 20° C | 32% | 1013.8 hPa | - | - | - | - |
| 1777309699 | 20.56° C | 32% | 1013.8 hPa | - | - | - | - |
| 1777308798 | 20.56° C | 31% | 1013.7 hPa | - | - | - | - |
| 1777307897 | 21.11° C | 30% | 1013.8 hPa | - | - | - | - |
| 1777306996 | 22.22° C | 28% | 1013.8 hPa | - | - | - | - |
| 1777306095 | 22.78° C | 28% | 1013.8 hPa | - | - | - | - |
| 1777305195 | 23.33° C | 27% | 1013.8 hPa | - | - | - | - |
| 1777304294 | 23.89° C | 26% | 1013.9 hPa | - | - | - | - |
| 1777303393 | 24.44° C | 24% | 1014.1 hPa | - | - | - | - |
| 1777302492 | 26.11° C | 24% | 1014.2 hPa | - | - | - | - |
| 1777301591 | 26.67° C | 22% | 1014.4 hPa | - | - | - | - |
| 1777300691 | 26.67° C | 22% | 1014.6 hPa | - | - | - | - |
| 1777299790 | 26.67° C | 21% | 1014.6 hPa | - | - | - | - |
| 1777298889 | 26.11° C | 23% | 1014.8 hPa | - | - | - | - |
| 1777297988 | 26.11° C | 22% | 1015 hPa | - | - | - | - |
| 1777297087 | 26.67° C | 22% | 1015.2 hPa | - | - | - | - |
| 1777296186 | 25° C | 24% | 1015.4 hPa | - | - | - | - |
| 1777295286 | 25.56° C | 23% | 1015.6 hPa | - | - | - | - |
| 1777294385 | 23.89° C | 25% | 1015.8 hPa | - | - | - | - |
| 1777293484 | 25° C | 23% | 1016 hPa | - | - | - | - |
* Rain since midnight (hover to see other rain measurements)
** Current wind speed in m/s (hover to see current wind gust speed)